HB9TUF-13 Weather Reports


time (UTC)temp
F
wind
direction
speed
knots
gust
knots
rain 1hr
in
rain 24hr
in
rain mn
in
humidity
%
barometer
mb
20260506171137 51 138 0.0 0.0 0.00 0.11 0.00 100
20260506165552 51 138 0.0 0.0 0.00 0.11 0.00 100
20260506162423 51 137 0.0 0.0 0.00 0.11 0.00 100
20260506160839 53 137 0.0 0.0 0.00 0.12 0.00 100
20260506153710 53 137 0.0 0.0 0.00 0.12 0.00 100
20260506152125 51 137 0.0 0.0 0.00 0.11 0.00 100
20260506150541 51 138 0.0 0.0 0.00 0.11 0.00 100
20260506144956 51 138 0.0 0.0 0.00 0.11 0.00 100
20260506143412 51 137 0.0 0.0 0.00 0.11 0.00 100
20260506134658 51 138 0.0 0.0 0.00 0.11 0.00 100
20260506131530 51 138 0.0 0.0 0.00 0.11 0.00 100
20260506125945 50 137 0.0 0.0 0.00 0.10 0.00 100
20260506124400 50 138 0.0 0.0 0.00 0.10 0.00 100
20260506122816 50 138 0.0 0.0 0.00 0.10 0.00 100
20260506115647 51 138 0.0 0.0 0.00 0.11 0.00 100
20260506105350 55 136 0.0 0.0 0.00 0.13 0.00 100
20260506100639 57 142 0.0 0.0 0.00 0.14 0.00 100
20260506095055 57 142 0.0 0.0 0.00 0.14 0.00 100
20260506093511 55 143 0.0 0.0 0.00 0.13 0.00 100
20260506090342 55 143 0.0 0.0 0.00 0.13 0.00 100
20260506084758 55 143 0.0 0.0 0.00 0.13 0.00 100
20260506081630 55 143 0.0 0.0 0.00 0.13 0.00 100
20260506072917 53 143 0.0 0.0 0.00 0.12 0.00 100
20260506071333 53 144 0.0 0.0 0.00 0.12 0.00 100
20260506061035 50 139 0.0 0.0 0.00 0.10 0.00 100
20260506050735 48 129 0.0 0.0 0.00 0.09 0.00 100
20260506043605 48 125 0.0 0.0 0.00 0.09 0.00 100
20260506042019 48 124 0.0 0.0 0.00 0.09 0.00 100
20260506040434 48 124 0.0 0.0 0.00 0.09 0.00 100
20260506033304 48 125 0.0 0.0 0.00 0.09 0.00 100
20260506031719 48 125 0.0 0.0 0.00 0.09 0.00 100
20260506030134 48 125 0.0 0.0 0.00 0.09 0.00 100
20260506024549 48 125 0.0 0.0 0.00 0.09 0.00 100
20260506015833 50 125 0.0 0.0 0.00 0.10 0.00 100
20260506014248 50 125 0.0 0.0 0.00 0.10 0.00 100
20260506012703 50 125 0.0 0.0 0.00 0.10 0.00 100
20260506011118 50 125 0.0 0.0 0.00 0.10 0.00 100
20260506005533 48 125 0.0 0.0 0.00 0.09 0.00 100
20260506003948 48 125 0.0 0.0 0.00 0.09 0.00 100
20260506002403 48 125 0.0 0.0 0.00 0.09 0.00 100
20260506000818 48 125 0.0 0.0 0.00 0.09 0.00 100
20260505235233 48 125 0.0 0.0 0.00 0.09 0.00 100
20260505233648 48 125 0.0 0.0 0.00 0.09 0.00 100
20260505232103 48 125 0.0 0.0 0.00 0.09 0.00 100
20260505230518 48 126 0.0 0.0 0.00 0.09 0.00 100
20260505224933 50 126 0.0 0.0 0.00 0.10 0.00 100
20260505223348 50 126 0.0 0.0 0.00 0.10 0.00 100
20260505221803 50 126 0.0 0.0 0.00 0.10 0.00 100
20260505220218 48 126 0.0 0.0 0.00 0.09 0.00 100
20260505214634 50 126 0.0 0.0 0.00 0.10 0.00 100
20260505213049 50 126 0.0 0.0 0.00 0.10 0.00 100
20260505211504 50 126 0.0 0.0 0.00 0.10 0.00 100
20260505204334 51 126 0.0 0.0 0.00 0.11 0.00 100
20260505202750 51 127 0.0 0.0 0.00 0.11 0.00 100
20260505201205 51 127 0.0 0.0 0.00 0.11 0.00 100
20260505195620 53 127 0.0 0.0 0.00 0.12 0.00 100
20260505192451 53 127 0.0 0.0 0.00 0.12 0.00 100
20260505190907 55 127 0.0 0.0 0.00 0.13 0.00 100
20260505185323 55 127 0.0 0.0 0.00 0.13 0.00 100
20260505183739 57 128 0.0 0.0 0.00 0.14 0.00 100
20260505180610 59 142 0.0 0.0 0.00 0.15 0.00 100
20260505175026 59 142 0.0 0.0 0.00 0.15 0.00 100
20260505173442 59 142 0.0 0.0 0.00 0.15 0.00 100